Terug naar catalogus

STARLINK-31667

ActiefCommunicatieVLEO
NORAD 59609·PAYLOAD·🇺🇸 United States

Gelanceerd Apr 28, 2024 vanaf Cape Canaveral Space Force Station

Loading…

Volgende Passages (komende 24 uur)

TLE

VersSource: CelesTrak SupGP

Epoch: Sep 14, 2026, 22:37 UTC

1 59609C 24080J   26257.94284722  .00035558  00000+0  12879-2 0  2574
2 59609  43.0010  45.2034 0001704 273.1974  10.6518 15.27560731    11

Volg STARLINK-31667 in realtime met AllMySat

Download on the App Store